Find Starlink 2154

NORAD ID: 47741 Int'l Des: 2021-017 Owner: SPXS Country: US Constellation: starlink decayed
LEOCIRCULAR
Vis

Historical Track — May 15, 2024

正在加载3D地球...

关于 Starlink 2154

正在加载描述...

高度历史

Loading altitude history...

两行轨道根数

1 47741U 21017V 24136.28335378 .17580417 12457-4 16994-2 0 9996
2 47741 53.0223 285.1525 0009822 354.0233 80.3397 16.37437916177450
Epoch: May 15, 2024 • Age: 17313 hours

当前状态

Position data unavailable
发射日期 Mar 4, 2021
运行时间 5.1 years
衰减日期 May 15, 2024
类型 internet

技术详情

分类 Payload
质量 260.00 kg
干质量 248.00 kg
总质量 260.00 kg
长度 0.20 m
直径 2.80 m
跨度 9.00 m
形状 Box + pan
制造商 SPXS
平台类型 Starlink
阶段状态 Unknown Transfer Status
所有者/国家 SPXS/US

Most Searched